QPF
0.02 0.03 0.04 0.05 0.09 0.12 0.12 0.11 0.09 0.08 0.09 0.06 0.04 0.03 0.03 0.03 0.02 0.02 0.01 0.00 0.00 0.00 0.00 0.00 0.00 0.00 0.00 0.00 0.00 0.00 0.00 0.00 0.00 0.00 0.00 0.00 0.00 0.00 0.00 0.00 0.00 0.00 0.00
0.01 0.02 0.04 0.05 0.06 0.09 0.11 0.11 0.11 0.09 0.08 0.06 0.03 0.02 0.02 0.03 0.02 0.02 0.01 0.00 0.00 0.00 0.00 0.00 0.00 0.00 0.00 0.00 0.00 0.00 0.00 0.00 0.00 0.00 0.00 0.00 0.00 0.00 0.00 0.00 0.00 0.00 0.00
0.01 0.01 0.03 0.05 0.05 0.06 0.08 0.09 0.09 0.09 0.09 0.07 0.05 0.04 0.03 0.03 0.04 0.03 0.02 0.01 0.00 0.00 0.00 0.00 0.00 0.00 0.00 0.00 0.00 0.00 0.00 0.00 0.00 0.00 0.00 0.00 0.00 0.00 0.00 0.00 0.00 0.00 0.00
0.00 0.01 0.01 0.03 0.04 0.04 0.05 0.07 0.09 0.08 0.08 0.10 0.07 0.05 0.03 0.03 0.03 0.02 0.01 0.01 0.00 0.00 0.00 0.00 0.00 0.00 0.00 0.00 0.00 0.00 0.00 0.00 0.00 0.00 0.00 0.00 0.00 0.00 0.00 0.00 0.00 0.00 0.00
0.00 0.00 0.00 0.02 0.02 0.03 0.04 0.06 0.08 0.10 0.09 0.11 0.10 0.05 0.04 0.03 0.02 0.02 0.01 0.00 0.00 0.00 0.00 0.00 0.00 0.00 0.00 0.00 0.00 0.00 0.00 0.00 0.00 0.00 0.00 0.00 0.00 0.00 0.00 0.00 0.00 0.00 0.00
0.00 0.00 0.00 0.00 0.01 0.02 0.03 0.04 0.06 0.09 0.10 0.09 0.09 0.07 0.05 0.05 0.04 0.03 0.01 0.01 0.00 0.00 0.00 0.00 0.00 0.00 0.00 0.00 0.00 0.00 0.00 0.00 0.00 0.00 0.00 0.00 0.00 0.00 0.00 0.00 0.00 0.00 0.00
0.00 0.00 0.00 0.00 0.01 0.01 0.03 0.04 0.04 0.05 0.08 0.09 0.08 0.06 0.06 0.06 0.05 0.04 0.02 0.01 0.00 0.00 0.00 0.00 0.00 0.00 0.00 0.00 0.00 0.00 0.00 0.00 0.00 0.00 0.00 0.00 0.00 0.00 0.00 0.00 0.00 0.00 0.00
0.00 0.00 0.00 0.00 0.00 0.01 0.01 0.03 0.04 0.04 0.05 0.07 0.07 0.06 0.07 0.08 0.07 0.05 0.04 0.02 0.01 0.00 0.00 0.00 0.00 0.00 0.00 0.00 0.00 0.00 0.00 0.00 0.00 0.00 0.00 0.00 0.00 0.00 0.00 0.00 0.01 0.01 0.01
0.00 0.00 0.00 0.00 0.00 0.01 0.01 0.01 0.02 0.03 0.04 0.04 0.06 0.06 0.07 0.07 0.07 0.06 0.04 0.04 0.02 0.01 0.01 0.00 0.00 0.00 0.00 0.00 0.00 0.00 0.00 0.00 0.00 0.00 0.00 0.00 0.00 0.00 0.00 0.00 0.01 0.01 0.01
0.00 0.00 0.00 0.00 0.00 0.00 0.01 0.01 0.01 0.02 0.03 0.04 0.04 0.05 0.06 0.06 0.07 0.06 0.05 0.03 0.03 0.02 0.01 0.01 0.01 0.00 0.00 0.00 0.00 0.00 0.00 0.00 0.00 0.00 0.00 0.00 0.00 0.00 0.00 0.01 0.01 0.01 0.01
0.00 0.01 0.00 0.00 0.00 0.00 0.00 0.00 0.01 0.01 0.03 0.04 0.04 0.04 0.05 0.07 0.09 0.07 0.05 0.03 0.02 0.02 0.01 0.01 0.01 0.01 0.01 0.00 0.00 0.00 0.00 0.00 0.00 0.00 0.00 0.01 0.01 0.01 0.01 0.01 0.01 0.01 0.01
0.00 0.01 0.00 0.00 0.00 0.00 0.00 0.00 0.00 0.01 0.01 0.03 0.04 0.04 0.04 0.05 0.09 0.11 0.08 0.05 0.03 0.02 0.02 0.01 0.01 0.01 0.01 0.01 0.01 0.00 0.00 0.01 0.01 0.01 0.01 0.02 0.02 0.02 0.02 0.01 0.01 0.01 0.02
0.00 0.00 0.00 0.00 0.00 0.00 0.00 0.00 0.00 0.00 0.01 0.03 0.04 0.05 0.04 0.04 0.05 0.07 0.10 0.08 0.05 0.03 0.02 0.02 0.01 0.01 0.01 0.01 0.01 0.01 0.01 0.01 0.01 0.01 0.02 0.02 0.03 0.03 0.02 0.02 0.03 0.04 0.05
0.01 0.01 0.00 0.00 0.00 0.00 0.00 0.00 0.00 0.00 0.01 0.03 0.04 0.05 0.03 0.02 0.03 0.04 0.06 0.07 0.06 0.04 0.02 0.02 0.02 0.02 0.02 0.01 0.01 0.01 0.01 0.02 0.02 0.03 0.02 0.02 0.02 0.02 0.03 0.04 0.05 0.05 0.05
0.01 0.01 0.01 0.00 0.00 0.00 0.00 0.00 0.00 0.00 0.01 0.03 0.04 0.03 0.03 0.02 0.03 0.03 0.04 0.05 0.05 0.04 0.03 0.03 0.03 0.03 0.02 0.01 0.01 0.01 0.01 0.02 0.03 0.02 0.01 0.01 0.01 0.02 0.04 0.05 0.05 0.05 0.05
0.02 0.01 0.01 0.01 0.01 0.00 0.00 0.00 0.00 0.00 0.01 0.01 0.02 0.03 0.04 0.04 0.03 0.03 0.03 0.04 0.04 0.04 0.03 0.03 0.03 0.02 0.02 0.02 0.01 0.01 0.01 0.02 0.02 0.01 0.01 0.01 0.02 0.03 0.04 0.04 0.03 0.03 0.03
0.02 0.02 0.01 0.01 0.01 0.00 0.00 0.00 0.00 0.00 0.01 0.01 0.02 0.03 0.04 0.04 0.04 0.03 0.03 0.03 0.04 0.04 0.04 0.03 0.03 0.02 0.02 0.02 0.02 0.02 0.02 0.02 0.02 0.01 0.01 0.02 0.03 0.04 0.03 0.03 0.02 0.02 0.01
0.03 0.02 0.01 0.01 0.01 0.01 0.00 0.00 0.00 0.01 0.01 0.01 0.02 0.03 0.03 0.04 0.04 0.05 0.04 0.04 0.04 0.04 0.04 0.04 0.04 0.03 0.03 0.03 0.03 0.03 0.02 0.02 0.02 0.02 0.02 0.03 0.03 0.03 0.02 0.02 0.01 0.01 0.01
0.04 0.03 0.02 0.01 0.01 0.01 0.00 0.00 0.00 0.01 0.01 0.01 0.01 0.02 0.02 0.02 0.04 0.04 0.04 0.04 0.04 0.04 0.04 0.05 0.05 0.04 0.04 0.04 0.04 0.04 0.03 0.02 0.02 0.02 0.03 0.02 0.02 0.02 0.02 0.01 0.01 0.01 0.01
0.04 0.03 0.03 0.02 0.02 0.01 0.00 0.00 0.01 0.01 0.01 0.01 0.01 0.01 0.02 0.02 0.02 0.03 0.04 0.04 0.04 0.04 0.05 0.06 0.05 0.05 0.04 0.04 0.04 0.03 0.02 0.02 0.02 0.02 0.02 0.02 0.02 0.02 0.02 0.01 0.01 0.01 0.01
0.03 0.03 0.03 0.03 0.02 0.01 0.01 0.01 0.01 0.01 0.01 0.01 0.01 0.02 0.02 0.02 0.02 0.03 0.04 0.04 0.04 0.04 0.05 0.06 0.05 0.04 0.03 0.03 0.03 0.02 0.02 0.02 0.02 0.02 0.01 0.01 0.02 0.02 0.02 0.01 0.01 0.01 0.01
0.03 0.04 0.03 0.03 0.03 0.02 0.01 0.01 0.01 0.01 0.01 0.01 0.02 0.02 0.02 0.03 0.03 0.02 0.02 0.03 0.03 0.04 0.05 0.06 0.05 0.04 0.03 0.03 0.03 0.03 0.03 0.03 0.02 0.02 0.01 0.01 0.02 0.02 0.02 0.01 0.01 0.01 0.01
0.03 0.04 0.04 0.04 0.04 0.03 0.02 0.01 0.01 0.02 0.02 0.02 0.02 0.03 0.03 0.03 0.03 0.02 0.02 0.02 0.03 0.03 0.03 0.04 0.04 0.04 0.03 0.03 0.03 0.03 0.03 0.03 0.02 0.01 0.02 0.02 0.02 0.02 0.02 0.02 0.02 0.01 0.01
0.03 0.04 0.03 0.04 0.04 0.04 0.03 0.02 0.02 0.02 0.02 0.02 0.02 0.02 0.03 0.03 0.03 0.03 0.02 0.02 0.02 0.02 0.02 0.02 0.03 0.03 0.03 0.03 0.03 0.02 0.02 0.03 0.02 0.01 0.02 0.02 0.02 0.02 0.02 0.02 0.02 0.01 0.01
0.03 0.03 0.03 0.04 0.05 0.05 0.04 0.03 0.02 0.02 0.02 0.02 0.02 0.02 0.03 0.04 0.04 0.03 0.03 0.02 0.02 0.02 0.02 0.02 0.02 0.02 0.02 0.01 0.01 0.01 0.01 0.01 0.02 0.02 0.01 0.01 0.02 0.02 0.02 0.01 0.01 0.01 0.01
0.02 0.02 0.03 0.03 0.05 0.05 0.05 0.05 0.04 0.02 0.02 0.02 0.02 0.03 0.03 0.04 0.04 0.04 0.04 0.04 0.03 0.03 0.02 0.02 0.02 0.02 0.01 0.01 0.01 0.01 0.01 0.02 0.02 0.02 0.02 0.02 0.02 0.02 0.01 0.01 0.01 0.01 0.01
MSLP
999.38 999.24 999.05 998.85 998.69 998.63 998.74 999.08 999.69 1000.56 1001.66 1002.92 1004.28 1005.65 1006.96 1008.16 1009.22 1010.15 1010.98 1011.74 1012.46 1013.17 1013.90 1014.63 1015.35 1016.06 1016.73 1017.36 1017.94 1018.49 1019.01 1019.50 1019.98 1020.42 1020.82 1021.15 1021.39 1021.55 1021.62 1021.61 1021.56 1021.49 1021.43
998.41 998.38 998.30 998.20 998.14 998.16 998.33 998.71 999.34 1000.22 1001.31 1002.57 1003.92 1005.27 1006.58 1007.78 1008.86 1009.82 1010.67 1011.46 1012.21 1012.95 1013.69 1014.42 1015.14 1015.83 1016.49 1017.10 1017.67 1018.22 1018.75 1019.27 1019.78 1020.27 1020.71 1021.09 1021.39 1021.59 1021.68 1021.70 1021.64 1021.55 1021.46
997.32 997.35 997.36 997.38 997.42 997.55 997.82 998.27 998.96 999.86 1000.95 1002.20 1003.52 1004.85 1006.13 1007.32 1008.40 1009.38 1010.26 1011.08 1011.87 1012.64 1013.40 1014.14 1014.86 1015.54 1016.17 1016.77 1017.33 1017.88 1018.42 1018.96 1019.51 1020.04 1020.53 1020.96 1021.30 1021.53 1021.65 1021.67 1021.61 1021.50 1021.36
996.22 996.26 996.34 996.44 996.60 996.84 997.22 997.77 998.52 999.47 1000.57 1001.80 1003.09 1004.39 1005.63 1006.80 1007.87 1008.85 1009.76 1010.62 1011.44 1012.25 1013.03 1013.79 1014.51 1015.19 1015.82 1016.41 1016.96 1017.51 1018.06 1018.63 1019.20 1019.77 1020.30 1020.77 1021.14 1021.39 1021.52 1021.54 1021.46 1021.33 1021.17
995.26 995.27 995.35 995.50 995.74 996.09 996.58 997.23 998.05 999.04 1000.17 1001.39 1002.65 1003.90 1005.11 1006.24 1007.30 1008.28 1009.20 1010.09 1010.95 1011.79 1012.61 1013.39 1014.13 1014.81 1015.45 1016.04 1016.60 1017.15 1017.71 1018.29 1018.89 1019.47 1020.02 1020.51 1020.89 1021.15 1021.29 1021.30 1021.22 1021.07 1020.89
994.57 994.48 994.51 994.66 994.94 995.35 995.92 996.65 997.54 998.58 999.73 1000.94 1002.18 1003.40 1004.57 1005.67 1006.70 1007.67 1008.61 1009.51 1010.41 1011.28 1012.14 1012.95 1013.72 1014.42 1015.07 1015.67 1016.24 1016.80 1017.37 1017.96 1018.55 1019.14 1019.69 1020.17 1020.55 1020.81 1020.94 1020.95 1020.87 1020.72 1020.53
994.23 993.99 993.92 994.01 994.26 994.69 995.29 996.07 997.01 998.08 999.25 1000.46 1001.69 1002.88 1004.02 1005.09 1006.10 1007.07 1008.01 1008.93 1009.85 1010.76 1011.65 1012.50 1013.29 1014.03 1014.70 1015.31 1015.90 1016.46 1017.02 1017.59 1018.17 1018.74 1019.27 1019.73 1020.09 1020.34 1020.47 1020.48 1020.41 1020.26 1020.09
994.26 993.85 993.62 993.59 993.76 994.13 994.71 995.49 996.44 997.53 998.71 999.93 1001.15 1002.34 1003.46 1004.52 1005.52 1006.48 1007.43 1008.36 1009.30 1010.23 1011.15 1012.03 1012.86 1013.62 1014.31 1014.94 1015.52 1016.08 1016.62 1017.17 1017.71 1018.24 1018.73 1019.16 1019.49 1019.73 1019.86 1019.88 1019.83 1019.72 1019.58
994.65 994.03 993.62 993.41 993.44 993.70 994.21 994.94 995.87 996.95 998.14 999.36 1000.59 1001.78 1002.91 1003.97 1004.97 1005.93 1006.88 1007.82 1008.77 1009.72 1010.65 1011.55 1012.40 1013.18 1013.88 1014.52 1015.10 1015.63 1016.15 1016.66 1017.15 1017.62 1018.06 1018.44 1018.75 1018.98 1019.11 1019.16 1019.15 1019.09 1019.01
995.32 994.51 993.88 993.47 993.31 993.42 993.80 994.43 995.31 996.36 997.53 998.77 1000.01 1001.21 1002.36 1003.43 1004.45 1005.42 1006.37 1007.32 1008.27 1009.22 1010.15 1011.06 1011.91 1012.69 1013.40 1014.03 1014.59 1015.11 1015.59 1016.04 1016.48 1016.89 1017.27 1017.61 1017.90 1018.12 1018.27 1018.37 1018.41 1018.42 1018.41
996.21 995.20 994.36 993.73 993.36 993.28 993.49 994.01 994.79 995.79 996.94 998.17 999.42 1000.65 1001.82 1002.92 1003.96 1004.94 1005.89 1006.84 1007.78 1008.71 1009.64 1010.53 1011.38 1012.15 1012.85 1013.47 1014.02 1014.50 1014.94 1015.35 1015.73 1016.09 1016.43 1016.74 1017.01 1017.24 1017.42 1017.57 1017.69 1017.78 1017.86
997.20 996.03 995.00 994.15 993.57 993.28 993.32 993.68 994.35 995.28 996.38 997.60 998.86 1000.11 1001.31 1002.44 1003.49 1004.48 1005.44 1006.37 1007.29 1008.21 1009.11 1009.98 1010.81 1011.57 1012.26 1012.86 1013.39 1013.86 1014.27 1014.64 1014.98 1015.31 1015.61 1015.91 1016.18 1016.43 1016.66 1016.87 1017.07 1017.25 1017.42
998.23 996.93 995.72 994.69 993.89 993.41 993.26 993.47 994.02 994.85 995.90 997.09 998.35 999.61 1000.83 1001.97 1003.04 1004.04 1004.99 1005.91 1006.81 1007.70 1008.58 1009.42 1010.23 1010.98 1011.66 1012.26 1012.78 1013.24 1013.64 1014.00 1014.33 1014.64 1014.94 1015.23 1015.52 1015.81 1016.09 1016.37 1016.64 1016.91 1017.17
999.22 997.81 996.47 995.27 994.30 993.63 993.32 993.37 993.79 994.53 995.51 996.65 997.89 999.15 1000.37 1001.53 1002.60 1003.61 1004.55 1005.46 1006.34 1007.20 1008.05 1008.88 1009.68 1010.42 1011.10 1011.71 1012.25 1012.72 1013.14 1013.51 1013.85 1014.17 1014.49 1014.81 1015.13 1015.46 1015.80 1016.14 1016.49 1016.83 1017.16
1000.10 998.62 997.17 995.84 994.73 993.91 993.45 993.37 993.67 994.30 995.20 996.29 997.49 998.72 999.94 1001.09 1002.17 1003.17 1004.11 1005.01 1005.88 1006.73 1007.58 1008.40 1009.19 1009.94 1010.64 1011.28 1011.85 1012.37 1012.82 1013.23 1013.61 1013.98 1014.34 1014.69 1015.06 1015.44 1015.82 1016.22 1016.63 1017.03 1017.41
1000.81 999.28 997.76 996.35 995.13 994.20 993.62 993.41 993.60 994.14 994.95 995.97 997.12 998.33 999.52 1000.67 1001.75 1002.75 1003.70 1004.60 1005.47 1006.33 1007.17 1008.01 1008.82 1009.60 1010.34 1011.02 1011.65 1012.22 1012.74 1013.22 1013.66 1014.08 1014.49 1014.90 1015.32 1015.74 1016.17 1016.61 1017.05 1017.49 1017.91
1001.30 999.75 998.20 996.73 995.45 994.44 993.77 993.48 993.57 994.01 994.74 995.70 996.79 997.95 999.13 1000.26 1001.34 1002.35 1003.31 1004.23 1005.12 1006.00 1006.87 1007.74 1008.59 1009.41 1010.20 1010.95 1011.65 1012.29 1012.89 1013.44 1013.96 1014.46 1014.93 1015.40 1015.86 1016.33 1016.79 1017.26 1017.71 1018.16 1018.58
1001.56 1000.01 998.44 996.96 995.64 994.59 993.87 993.51 993.53 993.90 994.56 995.44 996.48 997.60 998.75 999.88 1000.96 1002.00 1002.98 1003.94 1004.87 1005.79 1006.70 1007.61 1008.51 1009.40 1010.25 1011.07 1011.84 1012.57 1013.24 1013.88 1014.48 1015.05 1015.59 1016.12 1016.62 1017.12 1017.61 1018.08 1018.53 1018.97 1019.38
1001.59 1000.06 998.50 997.02 995.71 994.65 993.90 993.50 993.48 993.78 994.38 995.21 996.20 997.29 998.42 999.55 1000.65 1001.71 1002.74 1003.74 1004.72 1005.69 1006.66 1007.63 1008.59 1009.53 1010.45 1011.34 1012.18 1012.99 1013.75 1014.46 1015.14 1015.78 1016.38 1016.96 1017.51 1018.03 1018.52 1018.99 1019.43 1019.83 1020.20
1001.46 999.94 998.42 996.97 995.69 994.64 993.89 993.48 993.42 993.69 994.25 995.03 995.98 997.05 998.16 999.29 1000.42 1001.52 1002.59 1003.65 1004.69 1005.72 1006.75 1007.78 1008.79 1009.80 1010.77 1011.72 1012.63 1013.50 1014.34 1015.12 1015.87 1016.57 1017.23 1017.85 1018.43 1018.97 1019.47 1019.92 1020.33 1020.70 1021.02
1001.21 999.74 998.26 996.87 995.63 994.62 993.89 993.49 993.42 993.67 994.19 994.95 995.87 996.91 998.02 999.16 1000.31 1001.45 1002.57 1003.68 1004.78 1005.87 1006.96 1008.04 1009.10 1010.15 1011.18 1012.18 1013.15 1014.08 1014.97 1015.81 1016.62 1017.38 1018.08 1018.74 1019.35 1019.90 1020.40 1020.83 1021.21 1021.53 1021.81
1000.93 999.52 998.11 996.78 995.61 994.65 993.97 993.59 993.53 993.77 994.27 995.00 995.90 996.93 998.03 999.18 1000.35 1001.52 1002.69 1003.84 1004.99 1006.13 1007.27 1008.39 1009.50 1010.59 1011.66 1012.70 1013.70 1014.68 1015.61 1016.51 1017.36 1018.16 1018.91 1019.60 1020.23 1020.79 1021.28 1021.70 1022.05 1022.34 1022.56
1000.71 999.36 998.03 996.78 995.69 994.81 994.18 993.84 993.80 994.04 994.53 995.24 996.13 997.14 998.23 999.38 1000.57 1001.76 1002.95 1004.15 1005.33 1006.51 1007.68 1008.83 1009.97 1011.09 1012.19 1013.26 1014.30 1015.31 1016.28 1017.21 1018.10 1018.94 1019.72 1020.43 1021.08 1021.65 1022.14 1022.54 1022.87 1023.12 1023.29
1000.57 999.31 998.07 996.92 995.92 995.12 994.56 994.27 994.26 994.51 995.00 995.70 996.57 997.56 998.65 999.79 1000.98 1002.18 1003.39 1004.60 1005.81 1007.01 1008.20 1009.38 1010.54 1011.68 1012.80 1013.89 1014.96 1015.99 1016.99 1017.94 1018.86 1019.72 1020.52 1021.25 1021.90 1022.48 1022.96 1023.36 1023.66 1023.88 1024.03
1000.55 999.38 998.25 997.21 996.31 995.60 995.12 994.88 994.91 995.18 995.68 996.37 997.22 998.20 999.27 1000.40 1001.58 1002.78 1003.99 1005.21 1006.42 1007.63 1008.84 1010.03 1011.21 1012.36 1013.50 1014.61 1015.69 1016.74 1017.75 1018.72 1019.65 1020.52 1021.32 1022.06 1022.72 1023.29 1023.76 1024.15 1024.44 1024.64 1024.76
1000.64 999.58 998.56 997.63 996.84 996.23 995.83 995.66 995.73 996.02 996.53 997.22 998.07 999.03 1000.08 1001.20 1002.37 1003.55 1004.76 1005.97 1007.18 1008.40 1009.61 1010.81 1012.00 1013.17 1014.32 1015.44 1016.53 1017.58 1018.60 1019.57 1020.49 1021.35 1022.15 1022.87 1023.52 1024.07 1024.54 1024.91 1025.19 1025.38 1025.48
Thickness
5604 5613 5622 5630 5637 5643 5648 5653 5656 5658 5659 5659 5660 5659 5659 5659 5659 5659 5659 5658 5657 5655 5655 5653 5651 5650 5648 5646 5643 5640 5636 5633 5631 5628 5624 5623 5623 5622 5620 5618 5616 5614 5611
5595 5605 5614 5623 5631 5638 5643 5649 5652 5656 5658 5660 5660 5659 5657 5656 5655 5655 5654 5654 5654 5653 5652 5651 5648 5646 5644 5641 5639 5637 5632 5628 5627 5624 5619 5616 5615 5616 5615 5612 5610 5608 5605
5589 5600 5608 5618 5626 5633 5640 5645 5650 5653 5655 5656 5654 5652 5650 5649 5649 5651 5652 5652 5651 5650 5650 5648 5646 5644 5642 5639 5636 5634 5631 5625 5621 5621 5618 5612 5610 5608 5608 5606 5605 5602 5599
5584 5594 5603 5611 5621 5630 5637 5642 5646 5649 5651 5652 5653 5652 5653 5654 5656 5654 5652 5649 5648 5648 5647 5646 5644 5642 5640 5637 5634 5632 5629 5625 5618 5614 5613 5611 5608 5604 5602 5600 5598 5596 5594
5580 5589 5598 5608 5617 5625 5631 5636 5640 5644 5647 5649 5652 5652 5653 5653 5652 5649 5647 5646 5645 5645 5644 5643 5642 5640 5638 5635 5632 5628 5626 5623 5619 5613 5608 5604 5601 5599 5597 5595 5592 5590 5588
5573 5583 5592 5601 5609 5617 5624 5630 5635 5640 5644 5646 5649 5651 5652 5651 5649 5648 5646 5644 5643 5642 5642 5641 5640 5638 5636 5633 5630 5627 5623 5621 5617 5613 5609 5605 5600 5595 5591 5589 5586 5584 5582
5562 5572 5582 5592 5602 5610 5618 5625 5630 5635 5640 5643 5646 5650 5651 5650 5650 5649 5647 5645 5643 5642 5642 5640 5638 5636 5634 5631 5627 5624 5621 5618 5615 5611 5607 5604 5601 5597 5591 5587 5582 5578 5575
5554 5564 5575 5586 5596 5605 5613 5621 5626 5632 5637 5640 5644 5648 5649 5649 5649 5647 5647 5646 5646 5644 5642 5638 5636 5634 5631 5628 5625 5622 5618 5615 5612 5609 5605 5601 5598 5594 5590 5585 5578 5572 5568
5546 5557 5568 5579 5590 5599 5609 5617 5624 5629 5634 5639 5642 5644 5646 5647 5648 5647 5646 5644 5643 5641 5639 5636 5633 5631 5628 5625 5622 5619 5616 5612 5609 5606 5602 5598 5594 5590 5587 5582 5576 5570 5565
5538 5550 5562 5573 5583 5594 5604 5613 5621 5627 5632 5636 5639 5642 5644 5646 5645 5644 5643 5642 5641 5639 5636 5633 5631 5628 5625 5623 5620 5617 5613 5609 5606 5602 5598 5594 5591 5586 5582 5577 5571 5567 5561
5528 5541 5554 5566 5577 5587 5597 5606 5615 5622 5627 5632 5637 5639 5641 5642 5642 5641 5641 5640 5638 5636 5634 5632 5629 5626 5624 5621 5618 5615 5611 5607 5603 5599 5595 5591 5587 5582 5577 5571 5566 5560 5555
5518 5531 5544 5557 5568 5579 5590 5600 5610 5619 5626 5631 5634 5636 5638 5639 5639 5639 5639 5637 5635 5634 5632 5630 5627 5625 5622 5619 5616 5612 5608 5605 5601 5596 5592 5587 5582 5578 5572 5567 5561 5555 5550
5510 5522 5534 5546 5559 5572 5583 5594 5605 5615 5622 5627 5630 5632 5634 5635 5637 5637 5636 5634 5632 5631 5629 5627 5625 5624 5620 5617 5614 5611 5607 5603 5599 5594 5589 5584 5579 5573 5568 5562 5556 5550 5544
5500 5513 5524 5536 5549 5563 5576 5588 5598 5609 5617 5622 5625 5628 5632 5634 5635 5634 5633 5632 5630 5627 5626 5625 5624 5622 5619 5615 5611 5607 5603 5599 5594 5590 5586 5581 5576 5571 5564 5557 5551 5544 5537
5491 5503 5514 5526 5539 5554 5568 5581 5592 5602 5610 5617 5621 5626 5629 5630 5629 5628 5628 5628 5626 5625 5624 5621 5619 5617 5615 5612 5608 5604 5599 5595 5589 5585 5581 5576 5572 5567 5560 5554 5546 5539 5531
5482 5494 5506 5518 5531 5545 5560 5573 5584 5594 5603 5611 5618 5622 5623 5624 5624 5623 5623 5622 5622 5620 5619 5617 5615 5613 5611 5609 5605 5601 5595 5590 5585 5579 5574 5570 5564 5559 5554 5548 5542 5535 5526
5475 5486 5498 5510 5523 5538 5552 5566 5578 5587 5597 5605 5612 5615 5617 5619 5619 5619 5618 5617 5617 5616 5615 5613 5611 5609 5607 5604 5600 5595 5590 5585 5580 5574 5569 5563 5557 5552 5546 5539 5533 5527 5521
5468 5480 5492 5504 5518 5532 5546 5560 5571 5581 5591 5599 5605 5609 5612 5613 5614 5613 5613 5613 5613 5611 5610 5609 5606 5603 5600 5597 5593 5588 5582 5577 5572 5568 5563 5557 5550 5544 5538 5530 5523 5516 5510
5462 5474 5486 5499 5513 5527 5540 5554 5565 5574 5584 5592 5598 5603 5606 5607 5607 5608 5608 5607 5607 5605 5604 5602 5600 5597 5594 5590 5586 5580 5574 5569 5564 5559 5555 5550 5544 5538 5530 5523 5515 5506 5499
5459 5470 5483 5496 5509 5521 5534 5548 5559 5568 5578 5586 5592 5597 5599 5601 5602 5603 5602 5601 5600 5598 5596 5593 5592 5591 5587 5583 5579 5574 5569 5562 5556 5550 5546 5542 5537 5530 5523 5515 5507 5498 5490
5454 5466 5478 5491 5503 5516 5528 5541 5553 5563 5572 5579 5584 5589 5592 5594 5595 5595 5594 5593 5591 5589 5587 5585 5583 5581 5579 5575 5571 5568 5564 5557 5550 5543 5537 5533 5528 5522 5514 5508 5501 5493 5483
5450 5461 5472 5485 5498 5510 5522 5534 5545 5556 5564 5571 5576 5580 5583 5585 5586 5585 5584 5583 5582 5580 5578 5575 5572 5570 5568 5566 5563 5560 5557 5552 5545 5537 5530 5525 5519 5512 5505 5498 5491 5483 5473
5445 5456 5467 5480 5491 5502 5514 5526 5536 5546 5555 5561 5566 5570 5573 5575 5576 5576 5575 5574 5574 5573 5570 5568 5565 5560 5558 5557 5554 5551 5547 5542 5536 5529 5523 5517 5509 5502 5494 5488 5480 5471 5462
5440 5451 5462 5474 5485 5495 5506 5517 5528 5538 5547 5552 5556 5560 5564 5565 5566 5567 5568 5568 5568 5567 5564 5561 5558 5553 5550 5548 5544 5540 5535 5531 5525 5518 5512 5505 5497 5490 5483 5475 5468 5460 5453
5436 5446 5456 5467 5478 5489 5500 5510 5520 5530 5538 5544 5548 5551 5554 5556 5556 5557 5558 5561 5562 5565 5563 5559 5556 5551 5546 5542 5540 5536 5528 5523 5517 5509 5500 5492 5484 5477 5470 5463 5456 5449 5442
5432 5441 5452 5462 5472 5483 5494 5504 5514 5523 5531 5536 5539 5543 5545 5547 5547 5547 5545 5545 5550 5550 5552 5553 5550 5546 5543 5536 5531 5527 5522 5516 5510 5502 5492 5483 5476 5469 5462 5454 5445 5438 5431